Simultaneous Nadir Overpasses (SNOs) Predictions

Prediction of SNOs between GOES-16 and LANDSAT-8 Satellite Orbit:

Table of predicted SNOs for the next 14.0 days since TLE Epoch: 12/31/2022
Index Date Time (GOES-16) GOES-16 Lat,Lon LANDSAT-8 Lat,Lon Distance(km) Time Diff (sec)
1 01/01/2023 02:57:51 0.02, -75.18 0.79, -71.73 393.64 80
2 01/01/2023 15:21:46 -0.02, -75.20 0.34, -76.88 190.75 80
3 01/03/2023 15:06:55 -0.02, -75.21 -0.32, -73.93 146.41 80
4 01/04/2023 03:30:59 0.02, -75.20 -0.80, -79.12 445.02 80
5 01/05/2023 14:54:43 -0.03, -75.22 -0.93, -70.97 484.02 80
6 01/06/2023 03:18:47 0.02, -75.21 -0.18, -76.16 107.26 80
7 01/08/2023 03:03:55 0.02, -75.23 0.45, -73.20 231.22 80
8 01/08/2023 15:27:50 -0.02, -75.25 0.67, -78.35 352.90 80
9 01/10/2023 15:15:38 -0.02, -75.28 0.02, -75.40 13.32 80
10 01/12/2023 15:00:46 -0.01, -75.32 -0.64, -72.44 327.23 80
11 01/13/2023 03:24:49 0.01, -75.32 -0.51, -77.62 263.15 80
